Regional Weather Roundup
Issued by NWS

Home | Current Version | Previous Version | Text Only | Print | Product List | Glossary Off
Versions: 1 2 3 4 5 6 7 8 9 10 11 12 13 14 15 16 17 18 19 20 21 22 23 24 25 26 27 28 29 30 31 32 33 34 35 36 37 38 39 40 41 42 43 44 45 46 47 48 49 50

000
ASUS45 KCYS 312010
RWRWY

WYOMING REGIONAL WEATHER ROUNDUP
NATIONAL WEATHER SERVICE CHEYENNE WY
200 PM MDT MON AUG 31 2015

NOTE:  "FAIR" INDICATES FEW OR NO CLOUDS BELOW 12,000 FEET
WITH NO SIGNIFICANT WEATHER AND/OR OBSTRUCTIONS TO VISIBILITY.

WYZ001-312100-
YELLOWSTONE NATIONAL PARK

CITY           SKY/WX    TMP DP  RH WIND       PRES   REMARKS
LK YELLOWSTONE   N/A     61  28  28 SW9       30.25S
W YELLOWSTONE  NOT AVBL

$$
WYZ002>013-054>058-071-098>099-312100-
NORTHERN WYOMING

CITY           SKY/WX    TMP DP  RH WIND       PRES   REMARKS
JACKSON        SUNNY     72  25  17 SW13G25   30.16F
CODY           FAIR      81  28  15 NW8       29.98F
GREYBULL       FAIR      83  29  14 SE8       29.92F
WORLAND        FAIR      84  38  19 N7        29.92F
SHERIDAN       FAIR      80  44  27 SE14G22   29.94F
BUFFALO        FAIR      77  45  32 SE14      29.99F
GILLETTE       FAIR      78  45  30 SE12G18   29.99F
HULETT           N/A    N/A N/A N/A MISG        N/A
NEWCASTLE      FAIR      81  41  24 S12       30.02S

$$
WYZ014>020-022>026-101>103-312100-
CENTRAL WYOMING

CITY           SKY/WX    TMP DP  RH WIND       PRES   REMARKS
BIG PINEY      FAIR      78  20  11 W18G28    30.20F
PINEDALE       FAIR      72  21  15 SW7G16    30.21F
DUBOIS         FAIR      72  18  13 W20G28    30.15S
LANDER         FAIR      84  21  10 W21G30    30.03F
RIVERTON       FAIR      80  29  15 S12       30.03F
CASPER         FAIR      86  37  17 SW21G31   30.02F
DOUGLAS        FAIR      82  43  25 VRB7      30.05F

$$
WYZ021-027>030-104>119-312100-
SOUTHERN WYOMING

CITY           SKY/WX    TMP DP  RH WIND       PRES   REMARKS
EVANSTON       FAIR      78  35  21 SW14G25   30.21F
KEMMERER       FAIR      75  25  15 SW14G26   30.23S
FORT BRIDGER   CLEAR     79  37  22 W6G21     30.22F
ROCK SPRINGS   FAIR      74  36  25 W10G21    30.19F
DIXON          MOCLDY    79  47  32 S12G18    30.21F
RAWLINS        FAIR      78  42  27 W17G28    30.19F
SARATOGA       FAIR      77  43  29 W10G20    30.22F
LARAMIE        FAIR      77  41  27 S14G23    30.21F
CHEYENNE       PTSUNNY   83  40  21 VRB3      30.13F
TORRINGTON     FAIR      86  45  23 CALM      30.00F
PINE BLUFFS    FAIR      82  41  23 NE8       30.08F

$$


USA.gov is the U.S. government's official web portal to all federal, state and local government web resources and services.